sat.trackr.live / text

‹ back to catalog

STARLINK-32159

NORAD 60293 · 2024-132R

PAYLOAD ACTIVE UNKNOWN

§ Identity

Operator
Country
US
Launch date
2024-07-28
Launch site
AFETR
Launch vehicle
Mass (kg)
RCS (m²)

Purposes: comms

External: N2YO · Heavens-Above · Gunter

§ Orbital elements

Epoch: 2026-09-21T03:44:41.730720Z

Period
93.90 min
Inclination
53.1612°
Eccentricity
0.0001061
Mean motion
15.33546883 rev/d
Perigee alt
464.5 km
Apogee alt
466.0 km
Semi-major
6,843.4 km
B*
-3.1757e-5
RAAN
222.6327°
Arg perigee
80.7422°
Mean anomaly
279.3700°
Rev number
12,151

§ Raw data

STARLINK-321591 60293U 24132R   26264.15603855 -.00001417  00000+0 -31757-4 0  99962 60293  53.1612 222.6327 0001061  80.7422 279.3700 15.33546883121519

JSON: /api/v1/satellites/60293 · /tle

For live sub-satellite position, see the globe view (requires WebGL).

§ Visibility from observer

Set your observer location to see the next 7 days of passes ≥ 10°. The values pass through the URL so the page stays shareable.

No JS? Fill the form by hand. The geolocation button needs JavaScript.